Track STARLINK-31844 now! 10-day predictions STARLINK-31844 is classified as:
1 60583U 24150A 24324.38097103 -.00002145 00000-0 -60291-4 0 9996 2 60583 53.1598 354.4961 0001529 112.8958 247.2205 15.30204780 15275